This is the latest recevied weather packets stored in our database for station/object EA1HTW-13. If no packets are shown the sender has not sent any weather packets the latest 10 day(s).
| Time | Temp. | Humidity | Pressure | Rain* | Wind** | Luminosity | Snow |
|---|---|---|---|---|---|---|---|
| 1777579154 | 16.67° C | 72% | 1011.6 hPa | 0 mm | - | - | - |
| 1777578614 | 16.67° C | 71% | 1011.7 hPa | 0 mm | - | - | - |
| 1777578075 | 16.67° C | 71% | 1011.5 hPa | 0 mm | - | - | - |
| 1777577534 | 16.67° C | 71% | 1011.5 hPa | 0 mm | - | - | - |
| 1777576994 | 17.22° C | 71% | 1011.4 hPa | 0 mm | - | - | - |
| 1777576455 | 17.22° C | 70% | 1011.3 hPa | 0 mm | - | - | - |
| 1777575915 | 17.22° C | 70% | 1011.4 hPa | 0 mm | - | - | - |
| 1777575376 | 17.78° C | 66% | 1011.2 hPa | 0 mm | - | - | - |
| 1777574834 | 17.78° C | 65% | 1011.2 hPa | 0 mm | - | - | - |
| 1777574294 | 17.78° C | 65% | 1011.3 hPa | 0 mm | - | - | - |
| 1777573755 | 17.78° C | 65% | 1011.2 hPa | 0 mm | - | - | - |
| 1777573214 | 17.78° C | 65% | 1011 hPa | 0 mm | - | - | - |
| 1777572674 | 18.33° C | 64% | 1010.9 hPa | 0 mm | - | - | - |
| 1777572134 | 18.33° C | 65% | 1010.9 hPa | 0 mm | - | - | - |
| 1777571594 | 18.33° C | 65% | 1011 hPa | 0 mm | - | - | - |
| 1777571054 | 18.33° C | 63% | 1010.7 hPa | 0 mm | - | - | - |
| 1777570515 | 18.33° C | 63% | 1010.7 hPa | 0 mm | - | - | - |
| 1777569974 | 18.89° C | 61% | 1010.7 hPa | 0 mm | - | - | - |
| 1777569435 | 18.89° C | 61% | 1010.7 hPa | 0 mm | - | - | - |
| 1777568894 | 18.89° C | 61% | 1010.7 hPa | 0 mm | - | - | - |
| 1777568355 | 19.44° C | 60% | 1010.9 hPa | 0 mm | - | - | - |
| 1777567823 | 20° C | 60% | 1010.7 hPa | 0 mm | - | - | - |
| 1777567283 | 20° C | 61% | 1010.7 hPa | 0 mm | - | - | - |
| 1777566742 | 20° C | 62% | 1010.7 hPa | 0 mm | - | - | - |
| 1777566202 | 19.44° C | 62% | 1010.6 hPa | 0 mm | - | - | - |
* Rain latest hour (hover to see other rain measurements)
** Current wind speed in m/s (hover to see current wind gust speed)